Location: Malanoce
(44.2500°N, 7.4667°E)
Time: 13:58:51
(UTC+00:00)

Cosmos 1400 Rocket - Visible Passes

Search period start: 14 February 2026 00:00
Search period end: 24 February 2026 00:00
Orbit: 476 x 509 km, 81.1° (Epoch: 13 February)

Date Brightness Start Highest point End Pass type
(mag) Time Alt. Az. Time Alt. Az. Time Alt. Az.
14 Feb 5.4 04:14:43 10° SE 04:17:32 20° E 04:20:22 10° NE visible
14 Feb 3.5 05:49:25 10° SW 05:52:44 28° WNW 05:56:04 10° NNW visible
15 Feb 5.9 03:53:17 10° ESE 03:55:20 14° E 03:57:24 10° NE visible
15 Feb 3.1 05:26:45 10° SSW 05:30:20 40° WNW 05:33:57 10° N visible
16 Feb 2.6 05:04:13 10° SSW 05:07:57 60° WNW 05:11:44 10° N visible
17 Feb 2.5 04:41:48 10° S 04:45:35 89° WSW 04:49:25 10° N visible
18 Feb 3.1 04:21:13 25° S 04:23:15 61° E 04:27:01 10° NNE visible
18 Feb 4.7 05:58:09 10° WNW 05:59:04 11° WNW 05:59:57 10° NW visible
19 Feb 3.9 04:00:29 39° ESE 04:00:55 40° E 04:04:31 10° NNE visible
19 Feb 4.4 05:35:04 13° W 05:36:31 15° WNW 05:38:46 10° NNW visible
20 Feb 4.8 03:39:17 26° ENE 03:39:17 26° ENE 03:41:54 10° NNE visible
20 Feb 4.0 05:13:52 21° WNW 05:14:00 21° WNW 05:16:56 10° NNW visible
21 Feb 5.6 03:17:51 16° ENE 03:17:51 16° ENE 03:19:07 10° NE visible
21 Feb 3.8 04:52:25 26° NW 04:52:25 26° NW 04:54:52 10° NNW visible
22 Feb 4.1 04:30:47 25° NNW 04:30:47 25° NNW 04:32:40 10° N visible
23 Feb 4.6 04:09:03 20° N 04:09:03 20° N 04:10:22 10° N visible
